Regional Weather Roundup
Issued by NWS

Home | Current Version | Previous Version | Graphics & Text | Print | Product List | Glossary Off
Versions: 1 2 3 4 5 6 7 8 9 10 11 12 13 14 15 16 17 18 19 20 21 22 23 24 25 26 27 28 29 30 31 32 33 34 35 36 37 38 39 40 41 42 43 44 45 46 47 48 49 50

000
ASUS43 KDMX 231901
RWRIA

WEATHER ROUNDUP FOR IOWA
NATIONAL WEATHER SERVICE DES MOINES IA
200 PM CDT SAT SEP 23 2017

NOTE: "FAIR" INDICATES FEW OR NO CLOUDS BELOW 12,000 FEET WITH NO
SIGNIFICANT WEATHER AND/OR OBSTRUCTIONS TO VISIBILITY.

* - THESE STATIONS ARE NOT NWS STATIONS...THUS NOT UNDER NWS
QUALITY CONTROL.  THEY ALSO DO NOT REPORT WEATHER SUCH
AS PRECIPITATION OR FOG.

IAZ001>003-012>014-020>022-031>034-043>046-232000-
   NORTHWEST IOWA

CITY           SKY/WX    TMP DP  RH WIND       PRES   REMARKS
CARROLL *      MOSUNNY   90  66  45 S16G23    29.96F HX  92
CHEROKEE *     MOSUNNY   85  70  60 S12       29.93F HX  89
DENISON *      MOSUNNY   88  68  51 S16G23    29.96F HX  91
LE MARS *      PTSUNNY   86  70  58 SE13G21   29.91F HX  90
ORANGE CITY *  MOSUNNY   84  72  65 S8G16     29.93F HX  89
SHELDON *      MOSUNNY   86  70  58 S10G16    29.91F HX  90
SIOUX CITY     PTSUNNY   85  70  60 S15       29.91F HX  89
SPENCER        CLOUDY    87  68  52 S16       29.94F HX  90
STORM LAKE *   SUNNY     88  68  51 S16G23    29.95F HX  91
$$

IAZ055>058-069>071-079>083-090>094-232000-
   SOUTHWEST IOWA

CITY           SKY/WX    TMP DP  RH WIND       PRES   REMARKS
ATLANTIC *     SUNNY     88  64  45 S17       29.96F HX  89
AUDUBON *      SUNNY     88  68  51 S12G20    29.98F HX  91
CLARINDA *     MOSUNNY   91  64  40 S13G21    29.98F HX  93
COUNCIL BLFS * SUNNY     90  68  48 S22G30    29.94F HX  93
CRESTON *      SUNNY     90  64  43 S15G24    30.01F HX  91
HARLAN  *      MOSUNNY   88  66  48 S18G25    29.98F HX  90
LAMONI         MOSUNNY   89  66  46 S8G17     30.00F HX  91
RED OAK *      MOSUNNY   90  66  45 S20G26    29.96F HX  92
SHENANDOAH *   MOSUNNY   91  64  40 S13G22    29.95F HX  93
$$

IAZ047>049-059>061-072>074-084-232000-
   CENTRAL IOWA

CITY           SKY/WX    TMP DP  RH WIND       PRES   REMARKS
AMES           SUNNY     89  66  46 S20G26    29.98F HX  91
ANKENY *       MOSUNNY   88  66  48 S10G18    29.99F HX  90
BOONE *        MOSUNNY   90  64  43 S8G21     29.98F HX  91
CHARITON *     MOSUNNY   90  66  45 S9G16     30.00F HX  92
DES MOINES     MOSUNNY   91  65  41 S16G22    29.98F HX  93
GRINNELL*      MOSUNNY   91  63  40 S12       30.03F HX  91
KNOXVILLE *    MOSUNNY   90  64  43 S9G17     30.00F HX  91
MARSHALLTOWN   MOSUNNY   91  65  41 S15G21    30.00F HX  93
NEWTON *       MOSUNNY   90  64  43 S12G18    30.01F HX  91
PELLA *        SUNNY     91  63  39 S12G17    30.02F HX  92
PERRY *          N/A     92  60  34 S14G22    29.98F HX  91
$$

IAZ004>006-015-016-023>025-035-036-232000-
   NORTH CENTRAL IOWA

CITY           SKY/WX    TMP DP  RH WIND       PRES   REMARKS
ALGONA *       MOSUNNY   88  70  55 S14G20    29.96F HX  92
CLARION *      MOSUNNY   90  66  45 S14G21    29.98F HX  92
ESTHERVILLE    CLOUDY    85  70  60 S16       29.94F HX  89
FORT DODGE *   MOSUNNY   89  67  47 S14       29.97F HX  92
MASON CITY     MOSUNNY   87  66  49 S15G22    30.00F HX  89
FOREST CITY *  PTSUNNY   86  66  51 S14       29.98F HX  88
WEBSTER CITY * SUNNY     90  64  43 S10G20    29.96F HX  91
IOWA FALLS *     N/A     89  65  44 S17       30.01F HX  91
$$

IAZ007>011-017>019-026>030-037>042-050>054-066-232000-
   NORTHEAST IOWA

CITY           SKY/WX    TMP DP  RH WIND       PRES   REMARKS
CEDAR RAPIDS   MOSUNNY   93  63  36 S10       30.02F HX  94
CHARLES CITY * MOSUNNY   90  64  43 S13       30.01F HX  91
CLINTON *      SUNNY    N/A N/A N/A SE7       30.05F
DECORAH *      MOSUNNY   88  66  48 VRB5G13   30.02F HX  90
DUBUQUE        SUNNY     87  66  49 S7        30.06F HX  89
MONTICELLO *   MOSUNNY   93  63  36 SW12      30.03F HX  94
OELWEIN *      MOSUNNY   91  64  40 S14G21    30.03F HX  93
WATERLOO       MOSUNNY   90  62  39 S12G22    29.99F HX  90
$$

IAZ064-065-067-068-078-232000-
   EAST CENTRAL IOWA

CITY           SKY/WX    TMP DP  RH WIND       PRES   REMARKS
DAVENPORT      SUNNY     91  64  40 SW8       30.06F HX  92
IOWA CITY      SUNNY     93  65  39 VRB3      30.03F HX  95
MUSCATINE *    MOSUNNY   93  64  38 VRB7      30.02F HX  95
QUAD CITIES    MOSUNNY   93  63  36 S7        30.03F HX  94
$$

IAZ062-063-075>077-085>089-095>099-232000-
   SOUTHEAST IOWA

CITY           SKY/WX    TMP DP  RH WIND       PRES   REMARKS
BURLINGTON     SUNNY     92  63  38 S8        30.03F HX  93
FAIRFIELD *    SUNNY     91  63  38 S10G17    30.02F HX  92
FORT MADISON * SUNNY     91  64  40 CALM      30.03F HX  93
KEOKUK *       SUNNY     93  61  33 VRB5G13   30.02F HX  93
OSKALOOSA *      N/A     92  64  39 S8G16     30.02F HX  93
OTTUMWA        MOSUNNY   90  66  45 S9        30.02F HX  92
WASHINGTON *   MOSUNNY   93  64  38 VRB6G15   30.03F HX  95
$$

ABBREVIATIONS USED IN REMARKS
   TC - TEMPERATURES IN CELSIUS
  WCI - WIND CHILL INDEX
   HX - HEAT INDEX
  VSB - VISIBILITY
$$




USA.gov is the U.S. government's official web portal to all federal, state and local government web resources and services.